TimeMDT,TemperatureF,Dew PointF,Humidity,Sea Level PressureIn,VisibilityMPH,Wind Direction,Wind SpeedMPH,Gust SpeedMPH,PrecipitationIn,Events,Conditions,WindDirDegrees,DateUTC
12:53 AM,80.1,55.0,42,29.90,10.0,SW,12.7,-,N/A,,Clear,220,2013-07-10 06:53:00
1:53 AM,80.1,54.0,40,29.89,10.0,SW,16.1,-,N/A,,Clear,220,2013-07-10 07:53:00
2:53 AM,77.0,53.1,43,29.89,10.0,SW,13.8,-,N/A,,Clear,220,2013-07-10 08:53:00
3:53 AM,75.9,54.0,46,29.91,10.0,West,3.5,-,N/A,,Clear,280,2013-07-10 09:53:00
4:53 AM,73.9,54.0,50,29.93,10.0,North,9.2,-,N/A,,Clear,350,2013-07-10 10:53:00
5:53 AM,73.9,55.9,53,29.95,10.0,ENE,5.8,-,N/A,,Clear,70,2013-07-10 11:53:00
6:53 AM,73.0,57.0,57,29.96,10.0,East,9.2,-,N/A,,Clear,90,2013-07-10 12:53:00
7:53 AM,73.9,57.9,57,29.97,10.0,East,10.4,-,N/A,,Clear,100,2013-07-10 13:53:00
8:53 AM,80.1,57.9,47,29.97,10.0,ESE,11.5,-,N/A,,Clear,110,2013-07-10 14:53:00
9:53 AM,82.9,55.9,39,29.96,10.0,SE,8.1,-,N/A,,Clear,140,2013-07-10 15:53:00
10:53 AM,88.0,55.0,32,29.95,10.0,ESE,8.1,-,N/A,,Clear,120,2013-07-10 16:53:00
11:53 AM,90.0,55.0,30,29.94,10.0,SE,10.4,17.3,N/A,,Clear,140,2013-07-10 17:53:00
12:53 PM,93.9,55.0,27,29.91,10.0,ESE,10.4,17.3,N/A,,Clear,120,2013-07-10 18:53:00
1:53 PM,96.1,54.0,24,29.87,10.0,Variable,3.5,-,N/A,,Clear,0,2013-07-10 19:53:00
2:53 PM,98.1,52.0,21,29.84,10.0,Variable,3.5,-,N/A,,Clear,0,2013-07-10 20:53:00
3:53 PM,96.1,53.1,23,29.82,10.0,SE,20.7,24.2,N/A,,Mostly Cloudy,140,2013-07-10 21:53:00
4:25 PM,89.6,57.2,33,30.04,10.0,NE,13.8,-,0.00,,Mostly Cloudy,50,2013-07-10 22:25:00
4:53 PM,84.9,57.0,38,29.83,4.0,South,27.6,41.4,0.00,,Haze,180,2013-07-10 22:53:00
4:55 PM,84.2,57.2,40,30.04,2.5,SSE,39.1,49.5,N/A,,Haze,160,2013-07-10 22:55:00
5:09 PM,82.4,57.2,42,30.04,10.0,SSE,25.3,36.8,N/A,,Mostly Cloudy,150,2013-07-10 23:09:00
5:53 PM,84.0,55.0,37,29.83,10.0,ESE,13.8,-,N/A,,Scattered Clouds,120,2013-07-10 23:53:00
6:02 PM,78.8,57.2,47,30.12,1.5,NNW,33.4,50.6,N/A,,Haze,330,2013-07-11 00:02:00
6:04 PM,75.2,59.0,57,30.13,0.8,North,40.3,50.6,N/A,,Haze,360,2013-07-11 00:04:00
6:12 PM,73.4,59.0,61,30.16,1.2,North,28.8,49.5,N/A,,Haze,350,2013-07-11 00:12:00
6:14 PM,73.4,60.8,65,30.17,4.0,North,33.4,40.3,N/A,,Haze,360,2013-07-11 00:14:00
6:53 PM,66.0,63.0,90,29.99,8.0,NE,16.1,29.9,0.14,Rain,Light Rain,50,2013-07-11 00:53:00
7:53 PM,68.0,61.0,78,30.00,10.0,East,18.4,26.5,0.00,,Clear,80,2013-07-11 01:53:00
8:53 PM,68.0,59.0,73,29.99,10.0,ESE,17.3,-,N/A,,Clear,110,2013-07-11 02:53:00
9:53 PM,68.0,60.1,76,29.99,10.0,ESE,19.6,-,N/A,,Clear,110,2013-07-11 03:53:00
10:53 PM,66.9,60.1,79,29.97,10.0,ESE,12.7,-,N/A,,Clear,110,2013-07-11 04:53:00
11:53 PM,66.0,61.0,84,30.01,10.0,ESE,19.6,-,N/A,,Clear,120,2013-07-11 05:53:00